Wind_Speed
82 86 89 91 92 94 96 96 96 95 95 98 95 90 87 80 71 61 50 42 39 38 41 43 47 50 65 82 86 93 94 96 103 112 120 128 127 125 120 118 113 107 101 101 104 104 100
86 89 91 92 94 95 97 97 97 98 97 97 94 92 88 81 70 58 48 40 34 32 35 37 41 45 56 74 86 91 95 94 97 107 117 123 128 127 124 120 117 111 107 105 105 105 101
88 89 90 94 95 96 97 98 99 98 99 99 94 91 88 81 69 57 47 35 28 27 28 27 31 39 52 69 81 88 92 93 94 101 113 119 127 130 124 121 121 116 112 109 108 106 102
91 91 94 94 96 97 98 98 100 102 101 100 96 92 87 79 66 53 45 33 23 21 22 22 28 38 53 65 77 86 87 90 91 96 105 114 120 128 128 124 123 120 115 111 110 106 102
91 94 96 97 98 98 99 100 103 102 101 101 98 95 88 78 63 53 43 33 23 15 17 23 29 40 50 62 73 79 80 85 89 92 96 106 115 118 128 125 123 122 118 113 109 105 101
96 98 98 100 100 100 100 102 105 104 102 101 97 94 88 78 63 53 43 33 21 11 12 24 33 38 50 59 65 72 76 79 86 88 90 99 107 116 119 127 121 115 118 114 111 107 102
97 100 99 102 102 102 102 103 106 105 103 102 98 94 87 79 64 53 43 31 22 12 9 23 34 43 51 54 61 67 68 70 80 84 86 91 99 104 113 119 127 117 117 118 116 111 107
98 102 102 104 105 104 104 106 107 105 103 101 98 93 88 81 66 55 42 30 23 11 8 23 32 38 41 48 56 63 68 73 80 79 82 85 88 96 107 115 118 120 112 116 116 112 107
98 101 102 104 107 105 105 108 107 104 102 100 98 93 87 81 68 57 44 32 27 21 7 17 28 32 39 45 53 58 60 65 67 72 77 80 83 89 101 111 110 116 110 109 116 113 109
99 99 101 103 106 105 105 108 105 101 99 98 96 92 87 80 69 57 45 34 31 27 17 14 24 32 39 45 49 55 59 63 66 69 70 73 76 81 94 104 110 110 108 97 104 113 108
97 99 101 102 104 106 103 106 104 98 95 94 93 88 85 81 71 59 50 40 33 29 23 15 20 27 37 44 48 52 56 57 58 61 63 66 70 75 87 96 106 103 107 101 93 100 107
96 99 103 103 104 105 103 102 100 96 92 89 88 85 82 77 71 63 53 47 35 35 27 14 17 26 35 39 42 48 49 53 57 58 58 62 68 73 81 90 96 103 103 101 94 88 93
94 98 100 104 104 104 103 101 95 91 87 84 82 81 78 76 71 64 54 47 45 36 29 24 17 14 20 29 33 37 40 39 45 48 52 58 59 66 76 86 91 97 99 101 95 87 75
96 98 102 102 103 103 102 99 92 88 84 80 77 75 73 70 66 61 54 48 47 35 24 20 20 19 19 16 18 24 31 38 40 42 43 44 51 61 70 78 85 91 96 93 96 86 79
95 101 100 102 103 102 99 95 89 84 79 76 70 68 67 64 63 58 49 48 40 30 25 21 13 12 19 20 21 22 26 33 35 37 39 40 42 52 59 66 73 79 87 91 91 89 81
97 100 100 101 104 99 95 91 85 79 76 70 66 61 60 60 55 52 45 41 37 31 22 17 14 12 11 12 14 18 24 29 31 32 36 36 39 40 49 57 65 68 75 86 89 94 89
101 100 102 102 102 98 91 87 81 75 73 69 62 57 53 53 52 47 41 39 34 31 26 18 14 13 15 18 18 18 18 21 25 28 31 33 35 39 43 49 55 61 66 75 83 88 92
103 102 101 103 100 95 88 84 77 73 68 66 61 54 50 48 46 43 39 33 30 29 27 22 17 13 11 14 15 18 20 20 22 25 28 31 33 35 38 45 50 55 60 69 76 82 85
97 96 100 99 96 92 86 80 76 71 66 63 58 55 46 42 40 37 33 29 25 23 20 19 17 15 14 11 10 12 17 21 22 23 25 27 31 33 35 41 46 49 54 59 64 69 74
90 92 92 97 93 90 81 78 72 69 65 60 57 51 46 41 37 36 31 26 18 14 13 13 11 11 11 10 8 7 3 6 14 21 25 26 26 29 33 37 43 45 47 52 60 64 67
87 87 87 91 88 84 78 75 69 66 64 58 55 49 44 38 35 32 29 25 20 11 7 5 6 5 4 3 4 7 6 7 9 12 17 23 27 30 32 34 38 43 47 50 54 56 58
86 85 85 85 84 81 75 73 69 64 62 56 52 50 44 38 33 29 27 23 19 16 8 5 4 4 2 3 4 8 10 11 13 16 17 20 23 27 30 33 38 41 42 44 45 47 49
87 85 82 81 81 78 73 70 68 62 59 54 50 48 42 41 34 28 25 23 20 16 13 9 9 8 7 7 8 6 8 9 9 13 18 22 23 24 25 28 32 38 44 46 48 50 51
87 85 79 76 78 75 70 68 65 60 55 53 48 45 42 39 36 32 24 21 20 17 14 12 11 12 13 8 7 8 8 9 8 8 13 19 22 24 25 26 28 33 36 41 46 46 48
91 85 78 74 74 74 69 65 63 58 54 50 47 43 41 39 36 32 30 25 20 17 15 15 14 12 14 14 11 10 12 11 10 10 9 10 16 22 26 27 26 28 33 36 36 37 36
97 86 78 72 71 69 67 62 61 56 53 48 45 43 40 38 35 33 30 26 22 21 20 16 12 14 15 14 16 15 14 15 14 11 10 10 10 11 18 23 27 28 29 33 34 30 31
95 92 82 74 71 68 64 61 60 57 51 48 44 41 40 38 35 33 31 27 24 23 23 19 17 16 13 16 17 18 18 20 19 16 14 13 12 11 11 16 22 27 30 33 33 37 37
97 88 80 74 70 68 64 62 59 54 49 46 43 40 38 39 36 34 30 27 25 24 24 24 21 17 18 15 16 20 22 24 25 23 20 19 18 16 15 15 16 23 28 32 36 38 38
94 85 80 74 71 66 64 60 56 53 49 45 42 40 38 38 38 35 30 28 25 25 24 26 25 23 21 19 18 19 25 28 30 30 27 24 23 24 24 22 23 22 24 28 32 35 33
Wind_Direction
338 341 341 343 343 344 344 346 348 346 345 345 343 341 339 335 330 324 318 307 293 274 261 253 244 231 219 219 218 217 218 214 215 214 214 213 213 213 213 218 217 216 217 220 224 227 228
340 342 342 343 344 344 345 346 349 347 346 346 347 345 341 339 335 330 323 310 294 277 262 250 237 224 214 216 215 216 217 214 213 214 213 214 212 213 212 216 218 217 217 220 224 226 229
340 341 341 344 344 344 346 348 349 346 348 349 350 348 345 343 340 334 328 317 299 278 261 244 229 215 208 211 211 215 215 213 213 213 212 214 213 213 212 215 219 217 217 219 222 226 229
340 342 343 344 344 345 347 349 350 348 349 351 353 352 350 347 345 342 334 326 309 278 253 230 210 204 204 204 206 212 212 212 212 213 212 212 214 213 213 213 219 218 217 219 223 224 228
341 342 343 344 345 346 348 350 350 348 351 353 355 354 353 352 349 349 341 337 325 292 240 214 203 197 196 199 203 208 208 210 211 213 212 212 213 214 214 212 217 221 219 220 223 226 228
342 343 343 345 345 348 349 350 351 349 352 354 357 357 356 355 355 354 348 345 342 314 231 201 193 191 190 196 198 202 205 207 209 212 212 212 212 214 213 213 214 220 223 222 223 225 227
343 343 344 345 346 348 349 351 352 350 352 354 358 359 359 359 360 1 358 356 1 350 207 189 186 186 190 188 193 198 200 206 208 210 212 213 212 214 213 214 214 217 223 223 224 224 226
344 343 344 346 347 349 349 352 352 351 352 354 357 0 1 2 4 8 4 11 21 18 183 176 182 186 182 187 190 195 195 201 204 210 212 212 212 213 212 213 213 216 221 226 226 226 226
343 344 346 347 347 349 350 351 352 352 352 353 356 1 4 5 8 12 10 24 40 47 77 163 171 175 180 184 190 192 191 204 208 209 211 212 212 211 212 213 212 214 218 224 227 227 228
344 344 345 348 348 348 351 351 352 352 353 353 356 1 4 8 11 15 17 30 49 58 77 129 157 169 176 183 185 188 193 203 206 209 211 212 213 211 210 212 213 213 215 220 228 230 230
343 344 346 348 349 348 351 352 352 353 354 353 355 0 4 7 13 19 26 33 50 64 50 99 146 166 171 179 187 184 192 201 207 211 211 212 213 213 211 211 213 212 215 217 222 229 232
343 343 346 347 347 348 350 352 352 352 354 353 355 359 3 7 12 21 26 35 46 61 61 70 139 162 172 182 184 188 196 202 204 210 210 212 212 213 212 211 213 213 215 216 220 226 232
342 343 345 346 347 348 349 350 353 351 353 354 356 358 3 6 11 19 25 33 39 54 64 67 76 138 165 178 183 186 201 209 211 214 215 214 213 214 214 214 214 215 216 217 218 222 226
342 343 344 345 346 346 347 349 352 351 353 354 356 357 2 5 9 17 22 30 38 36 57 77 105 132 150 172 179 186 198 210 216 220 223 222 217 214 216 216 216 218 218 219 219 221 224
342 342 343 343 344 345 346 348 350 351 352 353 356 358 360 3 7 15 19 29 35 38 43 40 86 124 153 170 178 185 195 211 219 223 225 227 225 219 218 220 221 220 221 218 221 218 222
341 341 341 342 341 343 345 346 348 350 350 353 354 358 358 1 5 12 13 28 31 33 47 64 72 88 126 169 189 200 199 205 212 223 228 231 228 224 219 218 218 219 221 219 220 221 222
342 341 339 340 339 342 345 344 346 349 348 350 353 356 358 359 1 10 10 19 27 35 37 50 78 105 136 157 174 194 210 217 222 221 225 231 230 225 216 215 216 219 221 221 222 224 225
341 340 338 337 338 340 343 343 344 345 347 348 349 353 355 358 359 3 5 17 23 27 34 37 45 64 94 148 177 187 194 204 216 226 229 228 229 228 224 218 216 219 222 221 223 226 229
337 339 337 335 337 338 340 341 341 342 344 344 347 346 354 355 356 358 2 8 16 21 31 37 45 53 61 76 112 168 190 196 201 210 215 223 227 229 223 220 220 218 218 220 224 228 230
337 338 336 333 336 335 339 338 338 339 340 341 343 344 347 350 353 353 356 360 8 14 21 34 47 55 54 55 59 55 95 184 213 214 211 212 218 223 223 221 220 222 222 221 223 225 229
335 337 335 333 333 333 337 335 336 335 336 337 338 342 341 346 348 348 348 351 352 353 355 9 17 18 33 40 348 331 289 244 225 219 223 223 223 222 221 221 223 224 225 227 226 227 229
337 338 334 332 332 331 334 332 332 333 332 332 334 336 335 339 341 343 342 343 346 340 321 291 275 257 269 285 281 306 266 255 249 240 230 225 222 223 225 228 227 223 225 227 228 230 234
336 337 334 330 330 329 331 330 328 329 328 328 329 329 332 331 335 338 337 336 334 336 322 297 255 247 253 262 262 266 248 235 235 242 234 229 229 227 223 226 229 230 231 230 231 231 232
335 335 332 329 327 326 328 327 324 325 325 324 324 324 326 325 327 329 331 329 329 325 320 311 292 263 248 243 263 257 236 234 230 236 240 230 225 229 228 223 223 226 229 232 236 237 238
335 334 330 326 327 324 325 323 321 321 321 320 319 319 320 320 321 322 323 325 323 320 314 311 306 289 271 249 245 240 227 225 230 226 220 218 219 223 227 228 226 223 222 223 225 229 231
332 330 327 324 324 322 322 321 318 318 317 316 315 315 315 314 315 315 316 315 315 313 310 306 294 288 282 269 250 240 221 220 226 225 214 204 197 205 220 222 225 222 217 215 215 212 206
334 329 327 323 321 320 318 317 316 315 313 313 311 311 309 308 307 307 309 310 306 305 303 300 302 297 274 265 258 245 233 217 219 220 225 222 221 200 196 218 219 217 212 211 208 205 209
332 328 324 324 321 316 315 313 312 311 309 310 308 307 306 302 299 299 302 303 300 297 295 296 298 293 286 274 256 250 241 230 221 216 224 232 232 231 222 205 213 215 210 207 203 205 210
328 325 325 322 318 314 312 310 309 306 305 305 304 304 301 297 294 294 296 294 290 288 287 285 288 288 282 275 265 254 245 237 229 225 222 229 235 238 236 229 223 219 215 209 208 210 214
Height
10723 10708 10692 10677 10661 10643 10626 10608 10589 10567 10545 10524 10500 10476 10454 10434 10414 10396 10382 10372 10366 10362 10362 10367 10372 10385 10399 10409 10429 10441 10453 10473 10493 10510 10532 10552 10573 10591 10613 10627 10646 10667 10684 10692 10694 10698 10707
10715 10699 10682 10667 10651 10634 10616 10597 10576 10552 10532 10510 10486 10459 10436 10414 10394 10377 10365 10354 10348 10345 10346 10349 10355 10366 10381 10395 10407 10422 10436 10459 10479 10495 10513 10533 10558 10573 10594 10611 10628 10650 10666 10674 10681 10688 10699
10705 10692 10676 10660 10641 10623 10606 10586 10565 10542 10520 10496 10474 10450 10422 10397 10377 10361 10349 10340 10333 10330 10331 10335 10342 10353 10367 10378 10394 10407 10424 10445 10464 10480 10499 10517 10537 10559 10583 10599 10609 10631 10648 10657 10667 10677 10689
10697 10682 10665 10651 10633 10614 10596 10576 10553 10527 10509 10485 10460 10437 10411 10387 10366 10349 10337 10328 10322 10318 10320 10325 10330 10340 10350 10365 10378 10391 10414 10435 10454 10468 10485 10501 10521 10542 10564 10585 10593 10614 10632 10645 10654 10668 10681
10690 10673 10657 10642 10624 10605 10585 10566 10544 10519 10499 10475 10453 10428 10402 10379 10358 10342 10329 10319 10312 10308 10309 10315 10322 10328 10341 10354 10368 10386 10407 10427 10442 10457 10475 10491 10510 10529 10551 10571 10583 10599 10622 10637 10647 10661 10673
10681 10665 10649 10633 10614 10596 10577 10557 10535 10510 10490 10468 10449 10425 10400 10376 10354 10337 10323 10312 10305 10302 10302 10307 10315 10325 10337 10349 10367 10384 10401 10418 10433 10448 10463 10477 10494 10515 10537 10559 10583 10597 10612 10627 10636 10648 10661
10675 10657 10640 10623 10606 10588 10569 10551 10527 10502 10482 10462 10444 10424 10400 10376 10354 10336 10322 10310 10303 10300 10300 10306 10313 10319 10329 10347 10366 10379 10400 10417 10427 10439 10455 10468 10486 10511 10536 10549 10568 10585 10591 10605 10616 10631 10646
10669 10650 10632 10616 10598 10581 10562 10544 10522 10496 10475 10459 10441 10423 10400 10376 10355 10338 10325 10313 10306 10303 10303 10307 10315 10324 10338 10351 10363 10379 10397 10402 10416 10434 10447 10460 10482 10500 10520 10537 10558 10573 10582 10591 10607 10621 10636
10664 10645 10627 10610 10591 10574 10558 10538 10517 10494 10473 10453 10438 10422 10403 10381 10360 10344 10331 10320 10313 10310 10311 10314 10321 10333 10343 10354 10364 10379 10399 10404 10416 10429 10442 10456 10473 10490 10508 10527 10545 10560 10571 10579 10593 10607 10622
10658 10641 10622 10604 10586 10569 10555 10534 10515 10495 10472 10452 10437 10422 10406 10389 10369 10352 10339 10328 10323 10321 10323 10325 10330 10337 10348 10357 10369 10382 10395 10401 10411 10424 10437 10452 10467 10483 10500 10516 10533 10548 10561 10571 10581 10593 10610
10652 10636 10617 10600 10583 10566 10554 10535 10512 10496 10475 10454 10439 10426 10410 10392 10378 10362 10350 10340 10334 10332 10335 10336 10340 10347 10355 10362 10371 10385 10392 10402 10413 10424 10437 10451 10464 10479 10494 10505 10521 10539 10551 10561 10571 10582 10596
10648 10631 10614 10598 10580 10564 10550 10538 10516 10496 10480 10460 10443 10430 10416 10403 10389 10373 10363 10353 10348 10344 10346 10349 10351 10354 10361 10368 10379 10386 10395 10403 10411 10419 10433 10444 10455 10470 10487 10498 10512 10524 10539 10550 10562 10574 10584
10643 10626 10610 10594 10578 10561 10547 10534 10521 10501 10485 10467 10449 10434 10422 10407 10395 10383 10375 10367 10361 10356 10359 10361 10364 10368 10373 10378 10388 10397 10399 10408 10416 10422 10431 10440 10455 10467 10478 10491 10504 10517 10530 10543 10554 10567 10580
10638 10621 10607 10591 10576 10560 10545 10531 10519 10503 10489 10472 10455 10440 10429 10418 10406 10395 10386 10378 10371 10373 10372 10372 10375 10378 10384 10390 10398 10404 10408 10411 10416 10423 10431 10441 10453 10462 10474 10486 10499 10510 10522 10536 10549 10561 10570
10635 10617 10600 10585 10573 10559 10543 10531 10518 10506 10493 10477 10463 10449 10437 10427 10413 10404 10398 10388 10386 10386 10383 10383 10384 10387 10389 10392 10397 10404 10410 10414 10417 10422 10430 10438 10448 10460 10471 10482 10494 10505 10517 10527 10539 10549 10556
10630 10614 10596 10582 10568 10558 10542 10528 10517 10507 10493 10484 10469 10457 10445 10434 10426 10415 10410 10402 10397 10395 10393 10391 10392 10396 10399 10400 10402 10405 10409 10413 10418 10423 10428 10433 10443 10454 10464 10475 10484 10495 10505 10516 10526 10537 10545
10624 10610 10593 10577 10563 10554 10541 10527 10515 10507 10493 10484 10475 10462 10452 10441 10432 10423 10417 10408 10404 10402 10399 10398 10399 10400 10403 10404 10406 10408 10411 10415 10419 10422 10426 10431 10438 10447 10457 10466 10477 10486 10495 10505 10515 10525 10532
10620 10604 10590 10573 10559 10548 10538 10524 10513 10503 10496 10483 10473 10466 10456 10445 10436 10428 10423 10416 10411 10406 10403 10402 10402 10403 10406 10407 10408 10409 10411 10413 10417 10420 10424 10429 10434 10441 10449 10459 10468 10476 10485 10494 10502 10510 10518
10616 10600 10583 10570 10553 10541 10533 10522 10509 10499 10492 10483 10475 10464 10459 10450 10443 10435 10428 10421 10415 10413 10410 10409 10408 10407 10408 10410 10411 10413 10414 10414 10416 10418 10421 10424 10429 10434 10441 10449 10457 10467 10476 10484 10492 10499 10507
10608 10595 10578 10563 10550 10537 10528 10517 10506 10495 10487 10480 10473 10466 10456 10449 10442 10435 10430 10425 10420 10417 10415 10413 10412 10411 10410 10411 10412 10412 10413 10414 10415 10417 10418 10421 10424 10428 10434 10441 10449 10457 10466 10473 10480 10487 10495
10603 10588 10573 10556 10542 10531 10520 10511 10503 10491 10482 10475 10468 10464 10456 10450 10442 10435 10430 10425 10421 10418 10415 10414 10413 10412 10412 10412 10411 10411 10412 10413 10414 10415 10416 10418 10421 10425 10429 10434 10441 10448 10455 10462 10469 10478 10484
10592 10580 10563 10550 10537 10526 10515 10504 10495 10487 10476 10471 10464 10457 10452 10447 10442 10436 10430 10425 10421 10417 10414 10412 10411 10411 10410 10410 10410 10410 10408 10409 10410 10412 10413 10416 10418 10420 10424 10430 10435 10440 10446 10452 10460 10466 10474
10580 10570 10557 10542 10531 10519 10509 10499 10489 10481 10471 10463 10457 10452 10447 10441 10438 10434 10428 10423 10419 10416 10413 10411 10409 10408 10407 10406 10406 10406 10405 10405 10406 10407 10408 10410 10413 10417 10420 10424 10428 10433 10438 10444 10451 10457 10463
10566 10556 10545 10533 10519 10509 10502 10492 10482 10474 10465 10456 10451 10445 10440 10435 10430 10426 10425 10421 10416 10412 10409 10407 10405 10404 10403 10402 10402 10401 10402 10402 10402 10402 10404 10405 10407 10411 10416 10419 10421 10425 10431 10437 10442 10448 10454
10553 10543 10533 10520 10509 10500 10491 10483 10473 10465 10458 10449 10442 10437 10433 10427 10423 10420 10415 10412 10410 10408 10405 10402 10401 10400 10399 10398 10397 10397 10397 10398 10399 10400 10401 10401 10402 10405 10409 10413 10417 10420 10424 10429 10434 10439 10445
10540 10531 10518 10507 10495 10487 10479 10473 10463 10455 10448 10440 10434 10428 10425 10420 10417 10412 10409 10406 10403 10400 10398 10398 10396 10394 10392 10392 10393 10392 10393 10394 10396 10398 10399 10400 10400 10401 10404 10407 10410 10413 10417 10421 10427 10433 10438
10527 10517 10503 10492 10482 10474 10468 10461 10452 10444 10437 10430 10424 10420 10415 10411 10408 10405 10402 10399 10396 10393 10391 10391 10390 10389 10388 10387 10387 10388 10388 10388 10391 10393 10395 10397 10398 10399 10400 10402 10404 10406 10410 10414 10421 10427 10430
10513 10500 10488 10477 10468 10459 10455 10447 10440 10432 10426 10420 10414 10410 10407 10401 10399 10397 10394 10391 10388 10386 10383 10382 10382 10383 10381 10381 10381 10381 10382 10383 10384 10386 10389 10391 10394 10396 10397 10398 10400 10402 10405 10409 10414 10419 10424
10500 10487 10473 10461 10452 10444 10440 10432 10426 10419 10413 10409 10404 10400 10397 10392 10388 10387 10386 10384 10381 10378 10376 10373 10375 10374 10374 10374 10374 10374 10376 10376 10378 10379 10381 10385 10387 10389 10391 10395 10397 10399 10403 10406 10410 10414 10419